FW2517 Weather Reports


time (UTC)temp
C
wind
direction
speed
KPH
gust
KPH
rain 1hr
cm
rain 24hr
cm
rain mn
cm
humidity
%
barometer
mb
20260505031543 18 167 0.0 1.6 0.00 0.00 0.00 35 1015.8
20260505030042 18 180 0.0 0.0 0.00 0.00 0.00 35 1015.9
20260505024546 18 162 0.0 11.3 0.00 0.00 0.00 34 1015.9
20260505023045 18 186 0.0 0.0 0.00 0.00 0.00 34 1015.7
20260505021544 18 183 0.0 0.0 0.00 0.00 0.00 34 1015.7
20260505020037 18 170 0.0 0.0 0.00 0.00 0.00 33 1015.6
20260505014542 18 163 0.0 0.0 0.00 0.00 0.00 32 1015.5
20260505013036 18 189 0.0 0.0 0.00 0.00 0.00 34 1015.4
20260505011536 18 191 0.0 0.0 0.00 0.00 0.00 33 1015.3
20260505010005 19 193 0.0 0.0 0.00 0.00 0.00 32 1015.2
20260505004505 20 193 0.0 0.0 0.00 0.00 0.00 29 1015.0
20260505003002 20 194 0.0 0.0 0.00 0.00 0.00 28 1014.9
20260505001502 21 197 0.0 0.0 0.00 0.00 0.00 27 1014.8
20260505000001 22 198 0.0 0.0 0.00 0.00 0.00 25 1014.7
20260504234502 22 205 0.0 0.0 0.00 0.00 0.00 23 1014.7
20260504233030 23 200 0.0 1.6 0.00 0.00 0.00 22 1014.4
20260504231541 23 192 0.0 3.2 0.00 0.00 0.00 21 1014.3
20260504230028 23 261 0.0 6.4 0.00 0.00 0.00 20 1014.3
20260504224528 24 180 4.8 17.7 0.00 0.00 0.00 19 1014.3
20260504223026 24 170 0.0 11.3 0.00 0.00 0.00 20 1014.1
20260504221526 25 185 0.0 1.6 0.00 0.00 0.00 18 1014.3
20260504220055 25 186 0.0 3.2 0.00 0.00 0.00 18 1014.4
20260504214555 25 159 0.0 19.3 0.00 0.00 0.00 20 1014.4
20260504213052 25 229 0.0 3.2 0.00 0.00 0.00 19 1014.3
20260504211553 25 174 0.0 14.5 0.00 0.00 0.00 19 1014.4
20260504210105 25 124 0.0 16.1 0.00 0.00 0.00 18 1014.4
20260504204559 25 166 0.0 17.7 0.00 0.00 0.00 20 1014.5
20260504203048 25 238 4.8 17.7 0.00 0.00 0.00 19 1014.7
20260504201548 24 209 4.8 17.7 0.00 0.00 0.00 19 1015.0
20260504200039 24 246 0.0 11.3 0.00 0.00 0.00 18 1015.2
20260504194558 24 297 0.0 14.5 0.00 0.00 0.00 21 1015.3
20260504193034 24 180 1.6 11.3 0.00 0.00 0.00 25 1015.5
20260504191541 24 238 1.6 14.5 0.00 0.00 0.00 23 1015.6
20260504190032 23 146 6.4 17.7 0.00 0.00 0.00 21 1015.8
20260504184535 23 171 1.6 17.7 0.00 0.00 0.00 25 1016.0
20260504183022 23 205 0.0 1.6 0.00 0.00 0.00 26 1016.1
20260504181519 23 257 0.0 1.6 0.00 0.00 0.00 26 1016.3
20260504180020 22 139 6.4 12.9 0.00 0.00 0.00 25 1016.4
20260504174515 22 91 4.8 16.1 0.00 0.00 0.00 24 1016.5
20260504173135 22 119 0.0 12.9 0.00 0.00 0.00 29 1016.6
20260504171540 22 115 3.2 11.3 0.00 0.00 0.00 26 1016.8
20260504120108 9 180 0.0 0.0 0.00 0.00 0.00 65 1017.9
20260504081508 10 180 0.0 0.0 0.00 0.00 0.00 55 1017.5
20260504050104 12 144 0.0 3.2 0.00 0.00 0.00 46 1017.4
20260504044536 13 173 0.0 1.6 0.00 0.00 0.00 46 1017.8
20260504043032 13 159 0.0 1.6 0.00 0.00 0.00 46 1017.7
20260504041527 13 174 0.0 0.0 0.00 0.00 0.00 46 1017.8
20260504040029 13 152 0.0 0.0 0.00 0.00 0.00 46 1018.1
20260504034536 13 159 0.0 0.0 0.00 0.00 0.00 46 1018.1
20260504033026 13 144 0.0 0.0 0.00 0.00 0.00 46 1018.1